Wetterdaten: Samstag, 22.08.2015
Datum Zeit Temp. A. Feuchte A. Luftdruck Regen Wind Richtung Richtung Sonnenschein ET UV Solar Taupunkt Windchill Windben Empfang
22.08.2015 00:02 13,8 C 91 % 1023,4 hPa 0,0 l/m 0,0 km/h (0 Bft) NO 45 0 min 0,000 mm 0,0 UV-I 0 W/m 12,4 C 13,8 C 0,0 km/h (0 Bft) 0,00 %
22.08.2015 00:07 13,6 C 92 % 1023,3 hPa 0,0 l/m 0,0 km/h (0 Bft) N-NO 26 0 min 0,000 mm 0,0 UV-I 0 W/m 12,3 C 13,6 C 0,0 km/h (0 Bft) 0,00 %
22.08.2015 00:12 13,5 C 92 % 1023,3 hPa 0,0 l/m 0,0 km/h (0 Bft) N-NO 14 0 min 0,000 mm 0,0 UV-I 0 W/m 12,2 C 13,5 C 0,0 km/h (0 Bft) 0,00 %
22.08.2015 00:17 13,4 C 92 % 1023,3 hPa 0,0 l/m 0,0 km/h (0 Bft) W 277 0 min 0,000 mm 0,0 UV-I 0 W/m 12,1 C 13,4 C 0,0 km/h (0 Bft) 0,00 %
22.08.2015 00:22 13,4 C 93 % 1023,1 hPa 0,0 l/m 0,0 km/h (0 Bft) W 261 0 min 0,000 mm 0,0 UV-I 0 W/m 12,3 C 13,4 C 0,0 km/h (0 Bft) 0,00 %
22.08.2015 00:27 13,5 C 93 % 1023,0 hPa 0,0 l/m 0,0 km/h (0 Bft) N-NW 338 0 min 0,000 mm 0,0 UV-I 0 W/m 12,4 C 13,5 C 0,0 km/h (0 Bft) 0,00 %
22.08.2015 00:33 13,5 C 93 % 1022,9 hPa 0,0 l/m 0,0 km/h (0 Bft) N 357 0 min 0,000 mm 0,0 UV-I 0 W/m 12,4 C 13,5 C 0,0 km/h (0 Bft) 0,00 %
22.08.2015 00:38 13,5 C 93 % 1023,0 hPa 0,0 l/m 0,4 km/h (0 Bft) W-SW 256 0 min 0,000 mm 0,0 UV-I 0 W/m 12,4 C 13,5 C 4,0 km/h (1 Bft) 0,00 %
22.08.2015 00:43 13,5 C 93 % 1022,9 hPa 0,0 l/m 0,0 km/h (0 Bft) W-NW 282 0 min 0,000 mm 0,0 UV-I 0 W/m 12,4 C 13,5 C 0,0 km/h (0 Bft) 0,00 %
22.08.2015 00:48 13,5 C 93 % 1022,9 hPa 0,0 l/m 0,7 km/h (0 Bft) N-NW 331 0 min 0,000 mm 0,0 UV-I 0 W/m 12,4 C 13,5 C 4,0 km/h (1 Bft) 0,00 %
22.08.2015 00:53 13,6 C 93 % 1023,1 hPa 0,0 l/m 0,0 km/h (0 Bft) NO 54 0 min 0,000 mm 0,0 UV-I 0 W/m 12,5 C 13,6 C 0,0 km/h (0 Bft) 0,00 %
22.08.2015 00:58 13,6 C 93 % 1023,1 hPa 0,0 l/m 0,0 km/h (0 Bft) N-NO 27 0 min 0,000 mm 0,0 UV-I 0 W/m 12,5 C 13,6 C 0,0 km/h (0 Bft) 0,00 %
22.08.2015 01:03 13,6 C 93 % 1023,2 hPa 0,0 l/m 0,0 km/h (0 Bft) N-NO 27 0 min 0,000 mm 0,0 UV-I 0 W/m 12,5 C 13,6 C 0,0 km/h (0 Bft) 0,00 %
22.08.2015 01:08 13,6 C 93 % 1022,9 hPa 0,0 l/m 0,0 km/h (0 Bft) N-NO 27 0 min 0,000 mm 0,0 UV-I 0 W/m 12,5 C 13,6 C 0,0 km/h (0 Bft) 0,00 %
22.08.2015 01:13 13,6 C 93 % 1023,1 hPa 0,0 l/m 0,0 km/h (0 Bft) N-NO 27 0 min 0,000 mm 0,0 UV-I 0 W/m 12,5 C 13,6 C 0,0 km/h (0 Bft) 0,00 %
22.08.2015 01:18 13,6 C 93 % 1022,9 hPa 0,0 l/m 0,0 km/h (0 Bft) N-NO 27 0 min 0,000 mm 0,0 UV-I 0 W/m 12,5 C 13,6 C 0,0 km/h (0 Bft) 0,00 %
22.08.2015 01:23 13,6 C 93 % 1023,0 hPa 0,0 l/m 0,0 km/h (0 Bft) N-NO 27 0 min 0,000 mm 0,0 UV-I 0 W/m 12,5 C 13,6 C 0,0 km/h (0 Bft) 0,00 %
22.08.2015 01:28 13,6 C 93 % 1022,9 hPa 0,0 l/m 0,0 km/h (0 Bft) N-NO 27 0 min 0,000 mm 0,0 UV-I 0 W/m 12,5 C 13,6 C 0,0 km/h (0 Bft) 0,00 %
22.08.2015 01:33 13,6 C 93 % 1022,9 hPa 0,0 l/m 0,0 km/h (0 Bft) N-NO 27 0 min 0,000 mm 0,0 UV-I 0 W/m 12,5 C 13,6 C 0,0 km/h (0 Bft) 0,00 %
22.08.2015 01:38 13,5 C 93 % 1022,8 hPa 0,0 l/m 0,0 km/h (0 Bft) N-NO 27 0 min 0,000 mm 0,0 UV-I 0 W/m 12,4 C 13,5 C 0,0 km/h (0 Bft) 0,00 %
22.08.2015 01:43 13,5 C 93 % 1022,7 hPa 0,0 l/m 0,0 km/h (0 Bft) N-NO 27 0 min 0,000 mm 0,0 UV-I 0 W/m 12,4 C 13,5 C 0,0 km/h (0 Bft) 0,00 %
22.08.2015 01:48 13,5 C 93 % 1022,8 hPa 0,0 l/m 0,0 km/h (0 Bft) N-NO 27 0 min 0,000 mm 0,0 UV-I 0 W/m 12,4 C 13,5 C 0,0 km/h (0 Bft) 0,00 %
22.08.2015 01:53 13,5 C 93 % 1022,5 hPa 0,0 l/m 0,0 km/h (0 Bft) N-NO 27 0 min 0,000 mm 0,0 UV-I 0 W/m 12,4 C 13,5 C 0,0 km/h (0 Bft) 0,00 %
22.08.2015 01:58 13,5 C 93 % 1022,6 hPa 0,0 l/m 0,0 km/h (0 Bft) N-NO 27 0 min 0,000 mm 0,0 UV-I 0 W/m 12,4 C 13,5 C 0,0 km/h (0 Bft) 0,00 %
22.08.2015 02:03 13,5 C 93 % 1022,4 hPa 0,0 l/m 0,0 km/h (0 Bft) N-NO 27 0 min 0,000 mm 0,0 UV-I 0 W/m 12,4 C 13,5 C 0,0 km/h (0 Bft) 0,00 %
22.08.2015 02:08 13,5 C 92 % 1022,3 hPa 0,0 l/m 0,0 km/h (0 Bft) N-NO 27 0 min 0,000 mm 0,0 UV-I 0 W/m 12,2 C 13,5 C 0,0 km/h (0 Bft) 0,00 %
22.08.2015 02:13 13,4 C 92 % 1022,5 hPa 0,0 l/m 0,0 km/h (0 Bft) N-NO 27 0 min 0,000 mm 0,0 UV-I 0 W/m 12,1 C 13,4 C 0,0 km/h (0 Bft) 0,00 %
22.08.2015 02:18 13,4 C 92 % 1022,5 hPa 0,0 l/m 0,0 km/h (0 Bft) N-NO 27 0 min 0,000 mm 0,0 UV-I 0 W/m 12,1 C 13,4 C 0,0 km/h (0 Bft) 0,00 %
22.08.2015 02:23 13,4 C 92 % 1022,3 hPa 0,0 l/m 0,0 km/h (0 Bft) N-NO 27 0 min 0,000 mm 0,0 UV-I 0 W/m 12,1 C 13,4 C 0,0 km/h (0 Bft) 0,00 %
22.08.2015 02:28 13,3 C 92 % 1022,3 hPa 0,0 l/m 0,0 km/h (0 Bft) N-NO 27 0 min 0,000 mm 0,0 UV-I 0 W/m 12,0 C 13,3 C 0,0 km/h (0 Bft) 0,00 %
22.08.2015 02:33 13,2 C 92 % 1022,3 hPa 0,0 l/m 0,0 km/h (0 Bft) N-NO 27 0 min 0,000 mm 0,0 UV-I 0 W/m 11,9 C 13,2 C 0,0 km/h (0 Bft) 0,00 %
22.08.2015 02:38 13,1 C 93 % 1022,2 hPa 0,0 l/m 0,0 km/h (0 Bft) N-NO 27 0 min 0,000 mm 0,0 UV-I 0 W/m 12,0 C 13,1 C 0,0 km/h (0 Bft) 0,00 %
22.08.2015 02:43 13,0 C 93 % 1022,3 hPa 0,0 l/m 0,0 km/h (0 Bft) N-NO 27 0 min 0,000 mm 0,0 UV-I 0 W/m 11,9 C 13,0 C 0,0 km/h (0 Bft) 0,00 %
22.08.2015 02:48 12,9 C 93 % 1022,2 hPa 0,0 l/m 0,0 km/h (0 Bft) N-NO 13 0 min 0,000 mm 0,0 UV-I 0 W/m 11,8 C 12,9 C 0,0 km/h (0 Bft) 0,00 %
22.08.2015 02:53 12,7 C 93 % 1022,2 hPa 0,0 l/m 0,0 km/h (0 Bft) NO 56 0 min 0,000 mm 0,0 UV-I 0 W/m 11,6 C 12,7 C 0,0 km/h (0 Bft) 0,00 %
22.08.2015 02:58 12,6 C 93 % 1022,2 hPa 0,0 l/m 0,0 km/h (0 Bft) N 8 0 min 0,000 mm 0,0 UV-I 0 W/m 11,5 C 12,6 C 0,0 km/h (0 Bft) 0,00 %
22.08.2015 03:03 12,5 C 93 % 1022,3 hPa 0,0 l/m 0,0 km/h (0 Bft) O-NO 57 0 min 0,000 mm 0,0 UV-I 0 W/m 11,4 C 12,5 C 0,0 km/h (0 Bft) 0,00 %
22.08.2015 03:08 12,4 C 93 % 1022,2 hPa 0,0 l/m 0,0 km/h (0 Bft) NO 48 0 min 0,000 mm 0,0 UV-I 0 W/m 11,3 C 12,4 C 0,0 km/h (0 Bft) 0,00 %
22.08.2015 03:13 12,4 C 93 % 1022,2 hPa 0,0 l/m 0,0 km/h (0 Bft) NO 54 0 min 0,000 mm 0,0 UV-I 0 W/m 11,3 C 12,4 C 0,0 km/h (0 Bft) 0,00 %
22.08.2015 03:18 12,3 C 93 % 1022,2 hPa 0,0 l/m 0,0 km/h (0 Bft) NO 43 0 min 0,000 mm 0,0 UV-I 0 W/m 11,2 C 12,3 C 0,0 km/h (0 Bft) 0,00 %
22.08.2015 03:23 12,2 C 94 % 1021,9 hPa 0,0 l/m 0,0 km/h (0 Bft) NO 56 0 min 0,000 mm 0,0 UV-I 0 W/m 11,3 C 12,2 C 0,0 km/h (0 Bft) 0,00 %
22.08.2015 03:28 12,1 C 94 % 1021,8 hPa 0,0 l/m 0,0 km/h (0 Bft) NO 41 0 min 0,000 mm 0,0 UV-I 0 W/m 11,2 C 12,1 C 0,0 km/h (0 Bft) 0,00 %
22.08.2015 03:33 12,0 C 94 % 1021,9 hPa 0,0 l/m 0,0 km/h (0 Bft) N-NO 30 0 min 0,000 mm 0,0 UV-I 0 W/m 11,1 C 12,0 C 0,0 km/h (0 Bft) 0,00 %
22.08.2015 03:38 11,9 C 95 % 1021,9 hPa 0,0 l/m 0,0 km/h (0 Bft) NO 47 0 min 0,000 mm 0,0 UV-I 0 W/m 11,1 C 11,9 C 0,0 km/h (0 Bft) 0,00 %
22.08.2015 03:43 11,8 C 95 % 1021,7 hPa 0,0 l/m 0,0 km/h (0 Bft) O-NO 62 0 min 0,000 mm 0,0 UV-I 0 W/m 11,0 C 11,8 C 0,0 km/h (0 Bft) 0,00 %
22.08.2015 03:48 11,7 C 94 % 1022,0 hPa 0,0 l/m 0,0 km/h (0 Bft) O-NO 62 0 min 0,000 mm 0,0 UV-I 0 W/m 10,8 C 11,7 C 0,0 km/h (0 Bft) 0,00 %
22.08.2015 03:53 11,6 C 94 % 1022,1 hPa 0,0 l/m 0,0 km/h (0 Bft) O-NO 62 0 min 0,000 mm 0,0 UV-I 0 W/m 10,7 C 11,6 C 0,0 km/h (0 Bft) 0,00 %
22.08.2015 03:58 11,4 C 94 % 1021,9 hPa 0,0 l/m 0,0 km/h (0 Bft) O-NO 62 0 min 0,000 mm 0,0 UV-I 0 W/m 10,5 C 11,4 C 0,0 km/h (0 Bft) 0,00 %
22.08.2015 04:03 11,2 C 95 % 1021,9 hPa 0,0 l/m 0,0 km/h (0 Bft) O-NO 66 0 min 0,000 mm 0,0 UV-I 0 W/m 10,4 C 11,2 C 0,0 km/h (0 Bft) 0,00 %
22.08.2015 04:08 11,0 C 95 % 1021,9 hPa 0,0 l/m 0,0 km/h (0 Bft) O-NO 60 0 min 0,000 mm 0,0 UV-I 0 W/m 10,2 C 11,0 C 0,0 km/h (0 Bft) 0,00 %
22.08.2015 04:13 11,0 C 96 % 1021,9 hPa 0,0 l/m 0,0 km/h (0 Bft) O-NO 60 0 min 0,000 mm 0,0 UV-I 0 W/m 10,4 C 11,0 C 0,0 km/h (0 Bft) 0,00 %
22.08.2015 04:18 10,9 C 96 % 1021,8 hPa 0,0 l/m 0,0 km/h (0 Bft) O-NO 64 0 min 0,000 mm 0,0 UV-I 0 W/m 10,3 C 10,9 C 0,0 km/h (0 Bft) 0,00 %
22.08.2015 04:23 10,8 C 97 % 1022,0 hPa 0,0 l/m 0,0 km/h (0 Bft) O-NO 63 0 min 0,000 mm 0,0 UV-I 0 W/m 10,3 C 10,8 C 0,0 km/h (0 Bft) 0,00 %
22.08.2015 04:28 10,7 C 97 % 1021,9 hPa 0,0 l/m 0,0 km/h (0 Bft) O-NO 62 0 min 0,000 mm 0,0 UV-I 0 W/m 10,2 C 10,7 C 0,0 km/h (0 Bft) 0,00 %
22.08.2015 04:33 10,6 C 97 % 1021,9 hPa 0,0 l/m 0,0 km/h (0 Bft) O-NO 62 0 min 0,000 mm 0,0 UV-I 0 W/m 10,1 C 10,6 C 0,0 km/h (0 Bft) 0,00 %
22.08.2015 04:38 10,5 C 97 % 1021,8 hPa 0,0 l/m 0,0 km/h (0 Bft) O-NO 65 0 min 0,000 mm 0,0 UV-I 0 W/m 10,0 C 10,5 C 0,0 km/h (0 Bft) 0,00 %
22.08.2015 04:43 10,4 C 97 % 1021,8 hPa 0,0 l/m 0,0 km/h (0 Bft) NO 34 0 min 0,000 mm 0,0 UV-I 0 W/m 9,9 C 10,4 C 0,0 km/h (0 Bft) 0,00 %
22.08.2015 04:48 10,3 C 97 % 1021,8 hPa 0,0 l/m 0,0 km/h (0 Bft) NO 34 0 min 0,000 mm 0,0 UV-I 0 W/m 9,8 C 10,3 C 0,0 km/h (0 Bft) 0,00 %
22.08.2015 04:53 10,2 C 97 % 1021,8 hPa 0,0 l/m 0,0 km/h (0 Bft) NO 34 0 min 0,000 mm 0,0 UV-I 0 W/m 9,7 C 10,2 C 0,0 km/h (0 Bft) 0,00 %
22.08.2015 04:58 10,1 C 98 % 1021,6 hPa 0,0 l/m 0,0 km/h (0 Bft) NO 34 0 min 0,000 mm 0,0 UV-I 0 W/m 9,8 C 10,1 C 0,0 km/h (0 Bft) 0,00 %
22.08.2015 05:03 10,0 C 99 % 1021,5 hPa 0,0 l/m 0,0 km/h (0 Bft) NO 34 0 min 0,000 mm 0,0 UV-I 0 W/m 9,8 C 10,0 C 0,0 km/h (0 Bft) 0,00 %
22.08.2015 05:08 9,9 C 99 % 1021,7 hPa 0,0 l/m 0,0 km/h (0 Bft) NO 46 0 min 0,000 mm 0,0 UV-I 0 W/m 9,8 C 9,9 C 0,0 km/h (0 Bft) 0,00 %
22.08.2015 05:13 9,8 C 99 % 1021,6 hPa 0,0 l/m 0,0 km/h (0 Bft) O-NO 60 0 min 0,000 mm 0,0 UV-I 0 W/m 9,7 C 9,8 C 0,0 km/h (0 Bft) 0,00 %
22.08.2015 05:18 9,7 C 99 % 1021,9 hPa 0,0 l/m 0,0 km/h (0 Bft) O-NO 59 0 min 0,000 mm 0,0 UV-I 0 W/m 9,6 C 9,7 C 0,0 km/h (0 Bft) 0,00 %
22.08.2015 05:23 9,6 C 99 % 1021,8 hPa 0,0 l/m 0,0 km/h (0 Bft) O-NO 65 0 min 0,000 mm 0,0 UV-I 0 W/m 9,5 C 9,6 C 0,0 km/h (0 Bft) 0,00 %
22.08.2015 05:28 9,6 C 99 % 1021,6 hPa 0,0 l/m 0,0 km/h (0 Bft) O-NO 61 0 min 0,000 mm 0,0 UV-I 0 W/m 9,5 C 9,6 C 0,0 km/h (0 Bft) 0,00 %
22.08.2015 05:33 9,6 C 99 % 1022,1 hPa 0,0 l/m 0,0 km/h (0 Bft) O-NO 66 0 min 0,000 mm 0,0 UV-I 0 W/m 9,5 C 9,6 C 0,0 km/h (0 Bft) 0,00 %
22.08.2015 05:38 9,5 C 99 % 1021,8 hPa 0,0 l/m 0,0 km/h (0 Bft) NO 56 0 min 0,000 mm 0,0 UV-I 0 W/m 9,4 C 9,5 C 0,0 km/h (0 Bft) 0,00 %
22.08.2015 05:43 9,5 C 99 % 1021,9 hPa 0,0 l/m 0,0 km/h (0 Bft) NO 36 0 min 0,000 mm 0,0 UV-I 0 W/m 9,4 C 9,5 C 0,0 km/h (0 Bft) 0,00 %
22.08.2015 05:48 9,5 C 99 % 1022,0 hPa 0,0 l/m 0,0 km/h (0 Bft) NO 36 0 min 0,000 mm 0,0 UV-I 0 W/m 9,4 C 9,5 C 0,0 km/h (0 Bft) 0,00 %
22.08.2015 05:53 9,4 C 99 % 1021,8 hPa 0,0 l/m 0,0 km/h (0 Bft) NO 36 0 min 0,000 mm 0,0 UV-I 0 W/m 9,3 C 9,4 C 0,0 km/h (0 Bft) 0,00 %
22.08.2015 05:58 9,4 C 99 % 1021,9 hPa 0,0 l/m 0,0 km/h (0 Bft) NO 36 0 min 0,000 mm 0,0 UV-I 0 W/m 9,3 C 9,4 C 0,0 km/h (0 Bft) 0,00 %
22.08.2015 06:03 9,3 C 99 % 1022,0 hPa 0,0 l/m 0,0 km/h (0 Bft) NO 36 0 min 0,000 mm 0,0 UV-I 0 W/m 9,2 C 9,3 C 0,0 km/h (0 Bft) 0,00 %
22.08.2015 06:08 9,2 C 99 % 1021,8 hPa 0,0 l/m 0,0 km/h (0 Bft) NO 36 0 min 0,000 mm 0,0 UV-I 0 W/m 9,1 C 9,2 C 0,0 km/h (0 Bft) 0,00 %
22.08.2015 06:13 9,1 C 99 % 1021,9 hPa 0,0 l/m 0,0 km/h (0 Bft) NO 36 0 min 0,000 mm 0,0 UV-I 2 W/m 9,0 C 9,1 C 0,0 km/h (0 Bft) 0,00 %
22.08.2015 06:18 9,0 C 99 % 1021,8 hPa 0,0 l/m 0,0 km/h (0 Bft) NO 36 0 min 0,000 mm 0,0 UV-I 6 W/m 8,9 C 9,0 C 0,0 km/h (0 Bft) 0,00 %
22.08.2015 06:23 9,0 C 99 % 1021,8 hPa 0,0 l/m 0,0 km/h (0 Bft) NO 36 0 min 0,000 mm 0,0 UV-I 11 W/m 8,9 C 9,0 C 0,0 km/h (0 Bft) 0,00 %
22.08.2015 06:28 9,0 C 99 % 1022,0 hPa 0,0 l/m 0,0 km/h (0 Bft) NO 36 0 min 0,000 mm 0,0 UV-I 22 W/m 8,9 C 9,0 C 0,0 km/h (0 Bft) 0,00 %
22.08.2015 06:33 9,0 C 99 % 1022,1 hPa 0,0 l/m 0,0 km/h (0 Bft) O-NO 61 5 min 0,000 mm 0,0 UV-I 36 W/m 8,9 C 9,0 C 0,0 km/h (0 Bft) 0,00 %
22.08.2015 06:38 9,1 C 99 % 1022,0 hPa 0,0 l/m 0,0 km/h (0 Bft) NO 55 5 min 0,000 mm 0,0 UV-I 53 W/m 9,0 C 9,1 C 0,0 km/h (0 Bft) 0,00 %
22.08.2015 06:43 9,4 C 99 % 1022,0 hPa 0,0 l/m 0,0 km/h (0 Bft) NO 39 5 min 0,000 mm 0,0 UV-I 68 W/m 9,3 C 9,4 C 0,0 km/h (0 Bft) 0,00 %
22.08.2015 06:48 9,8 C 98 % 1021,9 hPa 0,0 l/m 0,0 km/h (0 Bft) NO 39 5 min 0,000 mm 0,0 UV-I 84 W/m 9,5 C 9,8 C 0,0 km/h (0 Bft) 0,00 %
22.08.2015 06:53 10,3 C 98 % 1022,0 hPa 0,0 l/m 0,0 km/h (0 Bft) NO 39 5 min 0,000 mm 0,0 UV-I 98 W/m 10,0 C 10,3 C 0,0 km/h (0 Bft) 0,00 %
22.08.2015 06:58 10,6 C 97 % 1022,0 hPa 0,0 l/m 0,0 km/h (0 Bft) NO 36 5 min 0,000 mm 0,0 UV-I 109 W/m 10,1 C 10,6 C 0,0 km/h (0 Bft) 0,00 %
22.08.2015 07:03 11,0 C 97 % 1022,0 hPa 0,0 l/m 0,0 km/h (0 Bft) NO 36 5 min 0,000 mm 0,0 UV-I 119 W/m 10,5 C 11,0 C 0,0 km/h (0 Bft) 0,00 %
22.08.2015 07:08 11,4 C 97 % 1022,0 hPa 0,0 l/m 0,0 km/h (0 Bft) NO 36 5 min 0,000 mm 0,0 UV-I 128 W/m 10,9 C 11,4 C 0,0 km/h (0 Bft) 0,00 %
22.08.2015 07:13 11,8 C 97 % 1021,9 hPa 0,0 l/m 0,0 km/h (0 Bft) NO 36 5 min 0,000 mm 0,0 UV-I 136 W/m 11,3 C 11,8 C 0,0 km/h (0 Bft) 0,00 %
22.08.2015 07:18 12,4 C 95 % 1022,0 hPa 0,0 l/m 0,0 km/h (0 Bft) N 355 5 min 0,000 mm 0,0 UV-I 140 W/m 11,6 C 12,4 C 0,0 km/h (0 Bft) 0,00 %
22.08.2015 07:23 12,9 C 92 % 1022,2 hPa 0,0 l/m 0,0 km/h (0 Bft) NO 34 5 min 0,000 mm 0,0 UV-I 144 W/m 11,6 C 12,9 C 0,0 km/h (0 Bft) 0,00 %
22.08.2015 07:28 13,3 C 88 % 1022,0 hPa 0,0 l/m 0,0 km/h (0 Bft) NO 36 5 min 0,000 mm 1,0 UV-I 148 W/m 11,4 C 13,3 C 0,0 km/h (0 Bft) 0,00 %
22.08.2015 07:33 13,8 C 84 % 1022,0 hPa 0,0 l/m 0,0 km/h (0 Bft) N-NO 33 5 min 0,000 mm 1,0 UV-I 150 W/m 11,1 C 13,8 C 0,0 km/h (0 Bft) 0,00 %
22.08.2015 07:38 14,3 C 80 % 1022,1 hPa 0,0 l/m 0,0 km/h (0 Bft) N-NO 33 5 min 0,000 mm 1,0 UV-I 153 W/m 10,9 C 14,3 C 0,0 km/h (0 Bft) 0,00 %
22.08.2015 07:43 14,9 C 77 % 1022,1 hPa 0,0 l/m 0,0 km/h (0 Bft) N-NO 25 5 min 0,000 mm 1,0 UV-I 155 W/m 10,9 C 14,9 C 0,0 km/h (0 Bft) 0,00 %
22.08.2015 07:48 15,2 C 75 % 1022,1 hPa 0,0 l/m 0,0 km/h (0 Bft) N-NO 33 5 min 0,000 mm 1,0 UV-I 156 W/m 10,8 C 15,2 C 0,0 km/h (0 Bft) 0,00 %
22.08.2015 07:53 15,5 C 75 % 1022,0 hPa 0,0 l/m 0,0 km/h (0 Bft) NO 36 5 min 0,000 mm 1,0 UV-I 159 W/m 11,1 C 15,5 C 0,0 km/h (0 Bft) 0,00 %
22.08.2015 07:58 15,8 C 74 % 1022,1 hPa 0,0 l/m 0,0 km/h (0 Bft) NO 36 5 min 0,000 mm 1,0 UV-I 164 W/m 11,2 C 15,8 C 0,0 km/h (0 Bft) 0,00 %
22.08.2015 08:03 16,2 C 72 % 1022,1 hPa 0,0 l/m 0,0 km/h (0 Bft) NO 39 0 min 0,000 mm 1,0 UV-I 170 W/m 11,1 C 16,2 C 0,0 km/h (0 Bft) 0,00 %
22.08.2015 08:08 16,8 C 71 % 1022,2 hPa 0,0 l/m 0,0 km/h (0 Bft) NO 34 0 min 0,000 mm 1,0 UV-I 175 W/m 11,5 C 16,8 C 0,0 km/h (0 Bft) 0,00 %
22.08.2015 08:13 17,4 C 68 % 1022,1 hPa 0,0 l/m 0,0 km/h (0 Bft) NO 35 0 min 0,000 mm 1,0 UV-I 182 W/m 11,4 C 17,4 C 0,0 km/h (0 Bft) 0,00 %
22.08.2015 08:18 17,9 C 66 % 1022,1 hPa 0,0 l/m 0,0 km/h (0 Bft) NO 42 0 min 0,000 mm 1,0 UV-I 189 W/m 11,5 C 17,9 C 0,0 km/h (0 Bft) 0,00 %
22.08.2015 08:23 18,4 C 65 % 1022,1 hPa 0,0 l/m 0,0 km/h (0 Bft) NO 53 0 min 0,000 mm 1,0 UV-I 198 W/m 11,7 C 18,4 C 0,0 km/h (0 Bft) 0,00 %
22.08.2015 08:28 18,7 C 63 % 1022,1 hPa 0,0 l/m 0,0 km/h (0 Bft) NO 42 0 min 0,000 mm 1,0 UV-I 204 W/m 11,5 C 18,7 C 0,0 km/h (0 Bft) 0,00 %
22.08.2015 08:33 19,0 C 63 % 1021,9 hPa 0,0 l/m 0,0 km/h (0 Bft) NO 51 0 min 0,000 mm 1,0 UV-I 213 W/m 11,8 C 19,0 C 0,0 km/h (0 Bft) 0,00 %
22.08.2015 08:38 19,2 C 64 % 1021,8 hPa 0,0 l/m 0,0 km/h (0 Bft) NO 40 5 min 0,000 mm 1,0 UV-I 223 W/m 12,2 C 19,2 C 0,0 km/h (0 Bft) 0,00 %
22.08.2015 08:43 19,4 C 61 % 1021,8 hPa 0,0 l/m 0,0 km/h (0 Bft) N 9 5 min 0,000 mm 1,0 UV-I 229 W/m 11,7 C 19,4 C 0,0 km/h (0 Bft) 0,00 %
22.08.2015 08:48 19,5 C 62 % 1021,7 hPa 0,0 l/m 0,0 km/h (0 Bft) N-NO 25 5 min 0,000 mm 1,0 UV-I 238 W/m 12,0 C 19,5 C 0,0 km/h (0 Bft) 0,00 %
22.08.2015 08:53 19,7 C 62 % 1021,9 hPa 0,0 l/m 0,0 km/h (0 Bft) NO 45 5 min 0,000 mm 1,0 UV-I 247 W/m 12,2 C 19,7 C 0,0 km/h (0 Bft) 0,00 %
22.08.2015 08:58 19,8 C 61 % 1021,9 hPa 0,0 l/m 0,0 km/h (0 Bft) NO 39 5 min 0,000 mm 1,0 UV-I 255 W/m 12,1 C 19,8 C 0,0 km/h (0 Bft) 0,00 %
22.08.2015 09:03 19,8 C 62 % 1021,8 hPa 0,0 l/m 0,0 km/h (0 Bft) O-NO 57 5 min 0,000 mm 1,0 UV-I 265 W/m 12,3 C 19,8 C 0,0 km/h (0 Bft) 0,00 %
22.08.2015 09:08 19,7 C 62 % 1021,7 hPa 0,0 l/m 0,0 km/h (0 Bft) O-NO 58 5 min 0,000 mm 1,0 UV-I 271 W/m 12,2 C 19,7 C 0,0 km/h (0 Bft) 0,00 %
22.08.2015 09:13 19,6 C 62 % 1021,7 hPa 0,0 l/m 0,0 km/h (0 Bft) N-NO 28 5 min 0,000 mm 1,0 UV-I 281 W/m 12,1 C 19,6 C 0,0 km/h (0 Bft) 0,00 %
22.08.2015 09:18 19,5 C 62 % 1021,6 hPa 0,0 l/m 0,0 km/h (0 Bft) NO 47 5 min 0,000 mm 1,0 UV-I 293 W/m 12,0 C 19,5 C 0,0 km/h (0 Bft) 0,00 %
22.08.2015 09:23 19,7 C 63 % 1021,7 hPa 0,0 l/m 0,0 km/h (0 Bft) N-NO 22 5 min 0,000 mm 1,0 UV-I 305 W/m 12,5 C 19,7 C 0,0 km/h (0 Bft) 0,00 %
22.08.2015 09:28 19,8 C 62 % 1021,8 hPa 0,0 l/m 0,4 km/h (0 Bft) SO 130 5 min 0,000 mm 1,0 UV-I 315 W/m 12,3 C 19,8 C 4,0 km/h (1 Bft) 0,00 %
22.08.2015 09:33 19,9 C 62 % 1021,8 hPa 0,0 l/m 0,0 km/h (0 Bft) N 351 5 min 0,000 mm 2,0 UV-I 305 W/m 12,4 C 19,9 C 0,0 km/h (0 Bft) 0,00 %
22.08.2015 09:38 20,0 C 59 % 1021,5 hPa 0,0 l/m 0,0 km/h (0 Bft) N 351 5 min 0,000 mm 2,0 UV-I 331 W/m 11,7 C 20,0 C 0,0 km/h (0 Bft) 0,00 %
22.08.2015 09:43 20,3 C 60 % 1021,6 hPa 0,0 l/m 0,7 km/h (0 Bft) N-NW 345 5 min 0,000 mm 2,0 UV-I 327 W/m 12,3 C 20,3 C 4,0 km/h (1 Bft) 0,00 %
22.08.2015 09:48 20,6 C 60 % 1021,4 hPa 0,0 l/m 0,0 km/h (0 Bft) O-NO 58 5 min 0,000 mm 2,0 UV-I 349 W/m 12,6 C 20,6 C 0,0 km/h (0 Bft) 0,00 %
22.08.2015 09:53 20,8 C 58 % 1021,4 hPa 0,0 l/m 0,0 km/h (0 Bft) NO 49 0 min 0,000 mm 2,0 UV-I 296 W/m 12,2 C 20,8 C 0,0 km/h (0 Bft) 0,00 %
22.08.2015 09:58 20,7 C 59 % 1021,4 hPa 0,0 l/m 3,2 km/h (1 Bft) SO 125 5 min 0,000 mm 2,0 UV-I 333 W/m 12,4 C 20,7 C 7,9 km/h (2 Bft) 0,00 %
22.08.2015 10:03 20,2 C 61 % 1021,3 hPa 0,0 l/m 1,4 km/h (1 Bft) O 81 5 min 0,000 mm 2,0 UV-I 384 W/m 12,4 C 20,2 C 4,0 km/h (1 Bft) 0,00 %
22.08.2015 10:08 20,0 C 60 % 1021,1 hPa 0,0 l/m 0,0 km/h (0 Bft) NO 34 5 min 0,000 mm 2,0 UV-I 400 W/m 12,0 C 20,0 C 0,0 km/h (0 Bft) 0,00 %
22.08.2015 10:13 20,3 C 57 % 1021,3 hPa 0,0 l/m 0,0 km/h (0 Bft) N-NO 26 5 min 0,000 mm 2,0 UV-I 411 W/m 11,5 C 20,3 C 0,0 km/h (0 Bft) 0,00 %
22.08.2015 10:18 20,8 C 54 % 1021,2 hPa 0,0 l/m 0,0 km/h (0 Bft) NO 43 5 min 0,000 mm 2,0 UV-I 425 W/m 11,1 C 20,8 C 0,0 km/h (0 Bft) 0,00 %
22.08.2015 10:23 21,2 C 54 % 1021,1 hPa 0,0 l/m 0,0 km/h (0 Bft) O-NO 65 5 min 0,000 mm 2,0 UV-I 438 W/m 11,5 C 21,2 C 0,0 km/h (0 Bft) 0,00 %
22.08.2015 10:28 21,7 C 53 % 1021,1 hPa 0,0 l/m 0,4 km/h (0 Bft) NW 312 5 min 0,000 mm 2,0 UV-I 452 W/m 11,7 C 21,7 C 4,0 km/h (1 Bft) 0,00 %
22.08.2015 10:33 21,8 C 53 % 1021,0 hPa 0,0 l/m 0,0 km/h (0 Bft) O 91 5 min 0,000 mm 2,0 UV-I 462 W/m 11,8 C 21,8 C 0,0 km/h (0 Bft) 0,00 %
22.08.2015 10:38 21,7 C 53 % 1021,1 hPa 0,0 l/m 1,8 km/h (1 Bft) O-SO 121 5 min 0,000 mm 2,0 UV-I 477 W/m 11,7 C 21,7 C 4,0 km/h (1 Bft) 0,00 %
22.08.2015 10:43 21,6 C 50 % 1021,1 hPa 0,0 l/m 0,4 km/h (0 Bft) SO 137 5 min 0,000 mm 2,0 UV-I 484 W/m 10,7 C 21,6 C 4,0 km/h (1 Bft) 0,00 %
22.08.2015 10:48 21,7 C 53 % 1021,0 hPa 0,0 l/m 1,4 km/h (1 Bft) O 84 5 min 0,000 mm 2,0 UV-I 499 W/m 11,7 C 21,7 C 4,0 km/h (1 Bft) 0,00 %
22.08.2015 10:53 22,0 C 52 % 1021,0 hPa 0,0 l/m 1,4 km/h (1 Bft) O 81 5 min 0,000 mm 2,0 UV-I 515 W/m 11,7 C 22,0 C 4,0 km/h (1 Bft) 0,00 %
22.08.2015 10:58 22,3 C 50 % 1020,9 hPa 0,0 l/m 0,0 km/h (0 Bft) O 88 5 min 0,000 mm 2,0 UV-I 528 W/m 11,4 C 22,3 C 0,0 km/h (0 Bft) 0,00 %
22.08.2015 11:03 22,5 C 51 % 1020,9 hPa 0,0 l/m 0,0 km/h (0 Bft) NO 49 5 min 0,000 mm 2,0 UV-I 540 W/m 11,8 C 22,5 C 0,0 km/h (0 Bft) 0,00 %
22.08.2015 11:08 22,7 C 50 % 1020,8 hPa 0,0 l/m 0,0 km/h (0 Bft) O-NO 68 5 min 0,000 mm 3,0 UV-I 548 W/m 11,7 C 22,7 C 0,0 km/h (0 Bft) 0,00 %
22.08.2015 11:13 22,7 C 52 % 1020,9 hPa 0,0 l/m 1,8 km/h (1 Bft) N 349 5 min 0,000 mm 3,0 UV-I 560 W/m 12,3 C 22,7 C 4,0 km/h (1 Bft) 0,00 %
22.08.2015 11:18 22,6 C 52 % 1020,8 hPa 0,0 l/m 0,0 km/h (0 Bft) O-NO 57 5 min 0,000 mm 3,0 UV-I 579 W/m 12,2 C 22,6 C 0,0 km/h (0 Bft) 0,00 %
22.08.2015 11:23 22,6 C 51 % 1020,6 hPa 0,0 l/m 0,0 km/h (0 Bft) N 353 5 min 0,000 mm 3,0 UV-I 596 W/m 11,9 C 22,6 C 0,0 km/h (0 Bft) 0,00 %
22.08.2015 11:28 22,8 C 48 % 1020,6 hPa 0,0 l/m 4,3 km/h (1 Bft) O-SO 113 5 min 0,000 mm 3,0 UV-I 612 W/m 11,2 C 22,8 C 7,9 km/h (2 Bft) 0,00 %
22.08.2015 11:33 22,9 C 51 % 1020,6 hPa 0,0 l/m 1,4 km/h (1 Bft) O-NO 71 5 min 0,000 mm 3,0 UV-I 623 W/m 12,2 C 22,9 C 4,0 km/h (1 Bft) 0,00 %
22.08.2015 11:38 23,0 C 48 % 1020,6 hPa 0,0 l/m 2,2 km/h (1 Bft) O-SO 113 5 min 0,000 mm 3,0 UV-I 630 W/m 11,4 C 23,0 C 4,0 km/h (1 Bft) 0,00 %
22.08.2015 11:43 23,2 C 48 % 1020,6 hPa 0,0 l/m 0,0 km/h (0 Bft) NO 41 5 min 0,000 mm 3,0 UV-I 644 W/m 11,6 C 23,2 C 0,0 km/h (0 Bft) 0,00 %
22.08.2015 11:48 23,3 C 48 % 1020,5 hPa 0,0 l/m 0,4 km/h (0 Bft) W-NW 303 5 min 0,000 mm 3,0 UV-I 654 W/m 11,7 C 23,3 C 4,0 km/h (1 Bft) 0,00 %
22.08.2015 11:53 23,2 C 48 % 1020,5 hPa 0,0 l/m 0,4 km/h (0 Bft) NO 34 5 min 0,000 mm 3,0 UV-I 665 W/m 11,6 C 23,2 C 4,0 km/h (1 Bft) 0,00 %
22.08.2015 11:58 23,0 C 51 % 1020,5 hPa 0,0 l/m 0,0 km/h (0 Bft) NO 38 5 min 0,000 mm 3,0 UV-I 674 W/m 12,3 C 23,0 C 0,0 km/h (0 Bft) 0,00 %
22.08.2015 12:03 23,0 C 49 % 1020,4 hPa 0,0 l/m 3,2 km/h (1 Bft) O 90 5 min 0,000 mm 3,0 UV-I 696 W/m 11,7 C 23,0 C 4,0 km/h (1 Bft) 0,00 %
22.08.2015 12:08 23,1 C 48 % 1020,5 hPa 0,0 l/m 1,8 km/h (1 Bft) O 82 5 min 0,000 mm 3,0 UV-I 691 W/m 11,5 C 23,1 C 4,0 km/h (1 Bft) 0,00 %
22.08.2015 12:13 23,1 C 46 % 1020,4 hPa 0,0 l/m 2,2 km/h (1 Bft) NO 37 5 min 0,000 mm 3,0 UV-I 703 W/m 10,8 C 23,1 C 4,0 km/h (1 Bft) 0,00 %
22.08.2015 12:18 23,1 C 46 % 1020,4 hPa 0,0 l/m 6,5 km/h (2 Bft) O 97 5 min 0,000 mm 3,0 UV-I 701 W/m 10,8 C 23,1 C 11,9 km/h (2 Bft) 0,00 %
22.08.2015 12:23 23,2 C 46 % 1020,5 hPa 0,0 l/m 4,7 km/h (1 Bft) O-NO 57 5 min 0,000 mm 3,0 UV-I 710 W/m 10,9 C 23,2 C 7,9 km/h (2 Bft) 0,00 %
22.08.2015 12:28 23,0 C 47 % 1020,3 hPa 0,0 l/m 7,2 km/h (2 Bft) O-SO 105 5 min 0,000 mm 3,0 UV-I 717 W/m 11,1 C 22,7 C 11,9 km/h (2 Bft) 0,00 %
22.08.2015 12:33 22,6 C 43 % 1020,2 hPa 0,0 l/m 4,0 km/h (1 Bft) O-NO 58 5 min 0,000 mm 4,0 UV-I 725 W/m 9,4 C 22,6 C 4,0 km/h (1 Bft) 0,00 %
22.08.2015 12:38 22,7 C 45 % 1020,3 hPa 0,0 l/m 4,7 km/h (1 Bft) S 180 5 min 0,000 mm 4,0 UV-I 730 W/m 10,1 C 22,7 C 7,9 km/h (2 Bft) 0,00 %
22.08.2015 12:43 22,9 C 43 % 1020,2 hPa 0,0 l/m 6,5 km/h (2 Bft) O-NO 64 5 min 0,000 mm 4,0 UV-I 731 W/m 9,6 C 22,9 C 7,9 km/h (2 Bft) 0,00 %
22.08.2015 12:48 23,0 C 42 % 1020,1 hPa 0,0 l/m 4,3 km/h (1 Bft) O-SO 123 5 min 0,000 mm 4,0 UV-I 728 W/m 9,4 C 23,0 C 7,9 km/h (2 Bft) 0,00 %
22.08.2015 12:53 23,0 C 41 % 1020,2 hPa 0,0 l/m 4,0 km/h (1 Bft) O-SO 102 5 min 0,000 mm 4,0 UV-I 740 W/m 9,0 C 23,0 C 7,9 km/h (2 Bft) 0,00 %
22.08.2015 12:58 23,1 C 41 % 1019,9 hPa 0,0 l/m 3,2 km/h (1 Bft) NO 55 5 min 0,000 mm 4,0 UV-I 748 W/m 9,1 C 23,1 C 4,0 km/h (1 Bft) 0,00 %
22.08.2015 13:03 23,1 C 42 % 1019,9 hPa 0,0 l/m 1,8 km/h (1 Bft) O 80 5 min 0,000 mm 4,0 UV-I 746 W/m 9,5 C 23,1 C 4,0 km/h (1 Bft) 0,00 %
22.08.2015 13:08 23,2 C 42 % 1019,9 hPa 0,0 l/m 0,4 km/h (0 Bft) O-NO 61 5 min 0,000 mm 4,0 UV-I 755 W/m 9,6 C 23,2 C 4,0 km/h (1 Bft) 0,00 %
22.08.2015 13:13 23,5 C 38 % 1020,0 hPa 0,0 l/m 0,0 km/h (0 Bft) N-NW 338 5 min 0,000 mm 4,0 UV-I 766 W/m 8,4 C 23,5 C 0,0 km/h (0 Bft) 0,00 %
22.08.2015 13:18 23,8 C 39 % 1019,7 hPa 0,0 l/m 0,4 km/h (0 Bft) O-NO 61 5 min 0,000 mm 4,0 UV-I 770 W/m 9,0 C 23,8 C 4,0 km/h (1 Bft) 0,00 %
22.08.2015 13:23 23,9 C 40 % 1019,9 hPa 0,0 l/m 5,4 km/h (1 Bft) SO 127 5 min 0,000 mm 4,0 UV-I 767 W/m 9,5 C 23,9 C 7,9 km/h (2 Bft) 0,00 %
22.08.2015 13:28 23,9 C 32 % 1019,8 hPa 0,0 l/m 0,4 km/h (0 Bft) S 191 5 min 0,000 mm 4,0 UV-I 781 W/m 6,2 C 23,9 C 4,0 km/h (1 Bft) 0,00 %
22.08.2015 13:33 23,9 C 32 % 1020,0 hPa 0,0 l/m 6,8 km/h (2 Bft) SO 144 5 min 0,000 mm 4,0 UV-I 802 W/m 6,2 C 23,8 C 7,9 km/h (2 Bft) 0,00 %
22.08.2015 13:38 24,0 C 33 % 1019,8 hPa 0,0 l/m 1,4 km/h (1 Bft) O-NO 60 5 min 0,000 mm 4,0 UV-I 791 W/m 6,7 C 24,0 C 4,0 km/h (1 Bft) 0,00 %
22.08.2015 13:43 23,8 C 32 % 1019,6 hPa 0,0 l/m 0,4 km/h (0 Bft) N 350 5 min 0,000 mm 4,0 UV-I 810 W/m 6,1 C 23,8 C 4,0 km/h (1 Bft) 0,00 %
22.08.2015 13:48 23,8 C 30 % 1019,7 hPa 0,0 l/m 0,0 km/h (0 Bft) NO 37 5 min 0,000 mm 4,0 UV-I 810 W/m 5,2 C 23,8 C 0,0 km/h (0 Bft) 0,00 %
22.08.2015 13:53 24,1 C 30 % 1019,6 hPa 0,0 l/m 1,8 km/h (1 Bft) N 351 5 min 0,000 mm 3,0 UV-I 778 W/m 5,4 C 24,1 C 4,0 km/h (1 Bft) 0,00 %
22.08.2015 13:58 24,3 C 28 % 1019,4 hPa 0,0 l/m 1,4 km/h (1 Bft) O-NO 71 5 min 0,000 mm 3,0 UV-I 790 W/m 4,6 C 24,3 C 4,0 km/h (1 Bft) 0,00 %
22.08.2015 14:03 24,4 C 30 % 1019,5 hPa 0,0 l/m 3,2 km/h (1 Bft) NO 40 5 min 0,000 mm 3,0 UV-I 816 W/m 5,7 C 24,4 C 4,0 km/h (1 Bft) 0,00 %
22.08.2015 14:08 24,2 C 30 % 1019,5 hPa 0,0 l/m 0,0 km/h (0 Bft) O 79 5 min 0,000 mm 3,0 UV-I 807 W/m 5,5 C 24,2 C 0,0 km/h (0 Bft) 0,00 %
22.08.2015 14:13 24,1 C 30 % 1019,3 hPa 0,0 l/m 4,0 km/h (1 Bft) O-NO 59 5 min 0,000 mm 3,0 UV-I 815 W/m 5,4 C 24,1 C 4,0 km/h (1 Bft) 0,00 %
22.08.2015 14:18 24,2 C 30 % 1019,2 hPa 0,0 l/m 4,7 km/h (1 Bft) N-NO 33 5 min 0,000 mm 3,0 UV-I 802 W/m 5,5 C 24,2 C 7,9 km/h (2 Bft) 0,00 %
22.08.2015 14:23 24,3 C 30 % 1019,3 hPa 0,0 l/m 1,4 km/h (1 Bft) O-SO 107 5 min 0,000 mm 3,0 UV-I 803 W/m 5,6 C 24,3 C 4,0 km/h (1 Bft) 0,00 %
22.08.2015 14:28 24,3 C 30 % 1019,2 hPa 0,0 l/m 0,4 km/h (0 Bft) NO 34 5 min 0,000 mm 3,0 UV-I 791 W/m 5,6 C 24,3 C 4,0 km/h (1 Bft) 0,00 %
22.08.2015 14:33 24,5 C 28 % 1019,1 hPa 0,0 l/m 0,0 km/h (0 Bft) NO 49 5 min 0,000 mm 3,0 UV-I 796 W/m 4,8 C 24,5 C 0,0 km/h (0 Bft) 0,00 %
22.08.2015 14:38 24,6 C 30 % 1019,2 hPa 0,0 l/m 5,8 km/h (2 Bft) O-SO 105 5 min 0,000 mm 3,0 UV-I 814 W/m 5,9 C 24,6 C 7,9 km/h (2 Bft) 0,00 %
22.08.2015 14:43 24,5 C 30 % 1019,1 hPa 0,0 l/m 4,7 km/h (1 Bft) O-SO 109 5 min 0,000 mm 3,0 UV-I 800 W/m 5,8 C 24,5 C 7,9 km/h (2 Bft) 0,00 %
22.08.2015 14:48 24,3 C 31 % 1019,1 hPa 0,0 l/m 0,0 km/h (0 Bft) NO 56 5 min 0,000 mm 3,0 UV-I 805 W/m 6,1 C 24,3 C 0,0 km/h (0 Bft) 0,00 %
22.08.2015 14:53 24,4 C 28 % 1019,0 hPa 0,0 l/m 0,7 km/h (0 Bft) NO 46 5 min 0,000 mm 3,0 UV-I 832 W/m 4,7 C 24,4 C 4,0 km/h (1 Bft) 0,00 %
22.08.2015 14:58 24,7 C 25 % 1019,1 hPa 0,0 l/m 0,0 km/h (0 Bft) NO 46 5 min 0,000 mm 3,0 UV-I 821 W/m 3,3 C 24,7 C 0,0 km/h (0 Bft) 0,00 %
22.08.2015 15:03 25,1 C 27 % 1019,0 hPa 0,0 l/m 3,2 km/h (1 Bft) O 85 5 min 0,000 mm 3,0 UV-I 818 W/m 4,8 C 25,1 C 7,9 km/h (2 Bft) 0,00 %
22.08.2015 15:08 25,1 C 30 % 1019,0 hPa 0,0 l/m 0,0 km/h (0 Bft) O-SO 111 5 min 0,000 mm 3,0 UV-I 804 W/m 6,3 C 25,1 C 0,0 km/h (0 Bft) 0,00 %
22.08.2015 15:13 24,8 C 31 % 1018,9 hPa 0,0 l/m 0,0 km/h (0 Bft) NO 40 5 min 0,000 mm 3,0 UV-I 829 W/m 6,5 C 24,8 C 0,0 km/h (0 Bft) 0,00 %
22.08.2015 15:18 24,9 C 26 % 1019,1 hPa 0,0 l/m 0,0 km/h (0 Bft) N-NO 32 5 min 0,000 mm 3,0 UV-I 862 W/m 4,1 C 24,9 C 0,0 km/h (0 Bft) 0,00 %
22.08.2015 15:23 25,4 C 28 % 1019,0 hPa 0,0 l/m 0,0 km/h (0 Bft) NO 44 5 min 0,000 mm 3,0 UV-I 852 W/m 5,6 C 25,4 C 0,0 km/h (0 Bft) 0,00 %
22.08.2015 15:28 25,5 C 29 % 1018,9 hPa 0,0 l/m 0,0 km/h (0 Bft) NO 41 0 min 0,000 mm 2,0 UV-I 238 W/m 6,1 C 25,5 C 0,0 km/h (0 Bft) 0,00 %
22.08.2015 15:33 25,2 C 29 % 1018,9 hPa 0,0 l/m 0,0 km/h (0 Bft) N-NO 29 5 min 0,000 mm 2,0 UV-I 787 W/m 5,9 C 25,2 C 0,0 km/h (0 Bft) 0,00 %
22.08.2015 15:38 25,0 C 29 % 1018,9 hPa 0,0 l/m 0,0 km/h (0 Bft) NO 41 5 min 0,000 mm 2,0 UV-I 784 W/m 5,7 C 25,0 C 0,0 km/h (0 Bft) 0,00 %
22.08.2015 15:43 24,9 C 29 % 1018,9 hPa 0,0 l/m 0,4 km/h (0 Bft) N-NW 330 5 min 0,000 mm 2,0 UV-I 796 W/m 5,6 C 24,9 C 4,0 km/h (1 Bft) 0,00 %
22.08.2015 15:48 24,9 C 32 % 1018,9 hPa 0,0 l/m 7,2 km/h (2 Bft) O-NO 60 5 min 0,000 mm 2,0 UV-I 791 W/m 7,1 C 24,7 C 11,9 km/h (2 Bft) 0,00 %
22.08.2015 15:53 24,6 C 31 % 1018,7 hPa 0,0 l/m 9,4 km/h (2 Bft) O-SO 116 5 min 0,000 mm 1,0 UV-I 759 W/m 6,3 C 23,9 C 11,9 km/h (2 Bft) 0,00 %
22.08.2015 15:58 24,4 C 31 % 1018,8 hPa 0,0 l/m 0,7 km/h (0 Bft) S-SO 166 5 min 0,000 mm 1,0 UV-I 777 W/m 6,2 C 24,4 C 4,0 km/h (1 Bft) 0,00 %
22.08.2015 16:03 24,3 C 31 % 1018,6 hPa 0,0 l/m 0,0 km/h (0 Bft) NO 46 5 min 0,000 mm 1,0 UV-I 768 W/m 6,1 C 24,3 C 0,0 km/h (0 Bft) 0,00 %
22.08.2015 16:08 24,4 C 31 % 1018,7 hPa 0,0 l/m 6,5 km/h (2 Bft) O 98 5 min 0,000 mm 1,0 UV-I 796 W/m 6,2 C 24,4 C 11,9 km/h (2 Bft) 0,00 %
22.08.2015 16:13 24,3 C 31 % 1018,6 hPa 0,0 l/m 10,4 km/h (2 Bft) O 93 5 min 0,000 mm 1,0 UV-I 780 W/m 6,1 C 23,3 C 11,9 km/h (2 Bft) 0,00 %
22.08.2015 16:18 24,0 C 32 % 1018,5 hPa 0,0 l/m 6,8 km/h (2 Bft) O 91 5 min 0,000 mm 1,0 UV-I 754 W/m 6,3 C 23,9 C 11,9 km/h (2 Bft) 0,00 %
22.08.2015 16:23 23,9 C 33 % 1018,5 hPa 0,0 l/m 1,8 km/h (1 Bft) O 82 5 min 0,000 mm 1,0 UV-I 729 W/m 6,6 C 23,9 C 4,0 km/h (1 Bft) 0,00 %
22.08.2015 16:28 23,9 C 32 % 1018,5 hPa 0,0 l/m 2,2 km/h (1 Bft) O 85 5 min 0,000 mm 1,0 UV-I 726 W/m 6,2 C 23,9 C 4,0 km/h (1 Bft) 0,00 %
22.08.2015 16:33 23,9 C 33 % 1018,4 hPa 0,0 l/m 0,7 km/h (0 Bft) W 261 5 min 0,000 mm 1,0 UV-I 725 W/m 6,6 C 23,9 C 4,0 km/h (1 Bft) 0,00 %
22.08.2015 16:38 24,0 C 31 % 1018,3 hPa 0,0 l/m 2,2 km/h (1 Bft) S 184 5 min 0,000 mm 1,0 UV-I 721 W/m 5,8 C 24,0 C 4,0 km/h (1 Bft) 0,00 %
22.08.2015 16:43 23,9 C 34 % 1018,2 hPa 0,0 l/m 4,7 km/h (1 Bft) O-SO 120 5 min 0,000 mm 1,0 UV-I 700 W/m 7,1 C 23,9 C 7,9 km/h (2 Bft) 0,00 %
22.08.2015 16:48 23,8 C 34 % 1018,3 hPa 0,0 l/m 0,4 km/h (0 Bft) O-NO 65 5 min 0,000 mm 1,0 UV-I 679 W/m 7,0 C 23,8 C 4,0 km/h (1 Bft) 0,00 %
22.08.2015 16:53 23,6 C 36 % 1018,4 hPa 0,0 l/m 5,4 km/h (1 Bft) NO 39 5 min 0,000 mm 1,0 UV-I 674 W/m 7,6 C 23,6 C 7,9 km/h (2 Bft) 0,00 %
22.08.2015 16:58 23,5 C 33 % 1018,3 hPa 0,0 l/m 2,2 km/h (1 Bft) NO 47 5 min 0,000 mm 1,0 UV-I 640 W/m 6,3 C 23,5 C 4,0 km/h (1 Bft) 0,00 %
22.08.2015 17:03 23,4 C 34 % 1018,2 hPa 0,0 l/m 4,7 km/h (1 Bft) O 79 0 min 0,000 mm 1,0 UV-I 232 W/m 6,6 C 23,4 C 7,9 km/h (2 Bft) 0,00 %
22.08.2015 17:08 23,2 C 33 % 1018,3 hPa 0,0 l/m 1,4 km/h (1 Bft) N-NO 19 0 min 0,000 mm 1,0 UV-I 252 W/m 6,0 C 23,2 C 4,0 km/h (1 Bft) 0,00 %
22.08.2015 17:13 23,2 C 33 % 1018,1 hPa 0,0 l/m 0,0 km/h (0 Bft) NO 43 0 min 0,000 mm 1,0 UV-I 237 W/m 6,0 C 23,2 C 0,0 km/h (0 Bft) 0,00 %
22.08.2015 17:18 23,2 C 33 % 1018,2 hPa 0,0 l/m 5,4 km/h (1 Bft) O-NO 71 5 min 0,000 mm 1,0 UV-I 630 W/m 6,0 C 23,2 C 7,9 km/h (2 Bft) 0,00 %
22.08.2015 17:23 23,3 C 32 % 1018,2 hPa 0,0 l/m 4,0 km/h (1 Bft) O-SO 107 5 min 0,000 mm 1,0 UV-I 624 W/m 5,7 C 23,3 C 4,0 km/h (1 Bft) 0,00 %
22.08.2015 17:28 23,5 C 32 % 1017,9 hPa 0,0 l/m 0,0 km/h (0 Bft) O-NO 69 5 min 0,000 mm 1,0 UV-I 622 W/m 5,8 C 23,5 C 0,0 km/h (0 Bft) 0,00 %
22.08.2015 17:34 23,7 C 32 % 1018,0 hPa 0,0 l/m 0,4 km/h (0 Bft) N-NW 347 6 min 0,000 mm 1,0 UV-I 607 W/m 6,0 C 23,7 C 4,0 km/h (1 Bft) 0,00 %
22.08.2015 17:39 24,0 C 31 % 1017,8 hPa 0,0 l/m 0,0 km/h (0 Bft) NO 47 5 min 0,000 mm 1,0 UV-I 601 W/m 5,8 C 24,0 C 0,0 km/h (0 Bft) 0,00 %
22.08.2015 17:44 24,2 C 31 % 1017,9 hPa 0,0 l/m 0,4 km/h (0 Bft) O-NO 60 5 min 0,000 mm 1,0 UV-I 591 W/m 6,0 C 24,2 C 4,0 km/h (1 Bft) 0,00 %
22.08.2015 17:49 24,3 C 31 % 1017,7 hPa 0,0 l/m 1,8 km/h (1 Bft) S 182 5 min 0,000 mm 1,0 UV-I 571 W/m 6,1 C 24,3 C 4,0 km/h (1 Bft) 0,00 %
22.08.2015 17:54 24,1 C 33 % 1018,0 hPa 0,0 l/m 3,2 km/h (1 Bft) O 91 5 min 0,000 mm 1,0 UV-I 546 W/m 6,8 C 24,1 C 4,0 km/h (1 Bft) 0,00 %
22.08.2015 17:59 23,8 C 33 % 1017,9 hPa 0,0 l/m 1,8 km/h (1 Bft) O-NO 73 5 min 0,000 mm 1,0 UV-I 527 W/m 6,6 C 23,8 C 4,0 km/h (1 Bft) 0,00 %
22.08.2015 18:04 23,6 C 33 % 1018,0 hPa 0,0 l/m 4,3 km/h (1 Bft) O-SO 107 5 min 0,000 mm 1,0 UV-I 517 W/m 6,4 C 23,6 C 7,9 km/h (2 Bft) 0,00 %
22.08.2015 18:09 23,5 C 34 % 1017,7 hPa 0,0 l/m 0,0 km/h (0 Bft) O-SO 109 5 min 0,000 mm 1,0 UV-I 515 W/m 6,7 C 23,5 C 0,0 km/h (0 Bft) 0,00 %
22.08.2015 18:14 23,4 C 34 % 1017,7 hPa 0,0 l/m 0,4 km/h (0 Bft) O 83 5 min 0,000 mm 1,0 UV-I 484 W/m 6,6 C 23,4 C 4,0 km/h (1 Bft) 0,00 %
22.08.2015 18:19 23,2 C 35 % 1017,8 hPa 0,0 l/m 4,3 km/h (1 Bft) SO 135 5 min 0,000 mm 1,0 UV-I 466 W/m 6,9 C 23,2 C 7,9 km/h (2 Bft) 0,00 %
22.08.2015 18:24 23,1 C 36 % 1017,5 hPa 0,0 l/m 1,4 km/h (1 Bft) NO 42 5 min 0,000 mm 1,0 UV-I 452 W/m 7,2 C 23,1 C 4,0 km/h (1 Bft) 0,00 %
22.08.2015 18:29 23,1 C 35 % 1017,6 hPa 0,0 l/m 3,2 km/h (1 Bft) SO 145 5 min 0,000 mm 1,0 UV-I 422 W/m 6,8 C 23,1 C 4,0 km/h (1 Bft) 0,00 %
22.08.2015 18:34 23,0 C 36 % 1017,5 hPa 0,0 l/m 0,0 km/h (0 Bft) O-NO 59 5 min 0,000 mm 1,0 UV-I 379 W/m 7,1 C 23,0 C 0,0 km/h (0 Bft) 0,00 %
22.08.2015 18:39 22,8 C 37 % 1017,5 hPa 0,0 l/m 4,3 km/h (1 Bft) O-SO 113 5 min 0,000 mm 1,0 UV-I 352 W/m 7,3 C 22,8 C 7,9 km/h (2 Bft) 0,00 %
22.08.2015 18:44 22,7 C 37 % 1017,5 hPa 0,0 l/m 0,4 km/h (0 Bft) O-SO 121 5 min 0,000 mm 1,0 UV-I 328 W/m 7,3 C 22,7 C 4,0 km/h (1 Bft) 0,00 %
22.08.2015 18:49 22,6 C 36 % 1017,7 hPa 0,0 l/m 4,3 km/h (1 Bft) O-NO 62 5 min 0,000 mm 1,0 UV-I 314 W/m 6,8 C 22,6 C 7,9 km/h (2 Bft) 0,00 %
22.08.2015 18:54 22,4 C 37 % 1017,5 hPa 0,0 l/m 1,4 km/h (1 Bft) NO 56 5 min 0,000 mm 0,0 UV-I 295 W/m 7,0 C 22,4 C 4,0 km/h (1 Bft) 0,00 %
22.08.2015 18:59 22,3 C 38 % 1017,5 hPa 0,0 l/m 0,4 km/h (0 Bft) O 84 5 min 0,000 mm 0,0 UV-I 284 W/m 7,3 C 22,3 C 4,0 km/h (1 Bft) 0,00 %
22.08.2015 19:04 22,1 C 39 % 1017,6 hPa 0,0 l/m 0,4 km/h (0 Bft) O-NO 77 5 min 0,000 mm 0,0 UV-I 262 W/m 7,5 C 22,1 C 4,0 km/h (1 Bft) 0,00 %
22.08.2015 19:09 22,0 C 38 % 1017,5 hPa 0,0 l/m 0,0 km/h (0 Bft) O-NO 75 5 min 0,000 mm 0,0 UV-I 233 W/m 7,0 C 22,0 C 0,0 km/h (0 Bft) 0,00 %
22.08.2015 19:14 21,9 C 38 % 1017,6 hPa 0,0 l/m 1,8 km/h (1 Bft) NO 49 5 min 0,000 mm 0,0 UV-I 213 W/m 6,9 C 21,9 C 4,0 km/h (1 Bft) 0,00 %
22.08.2015 19:19 21,7 C 39 % 1017,5 hPa 0,0 l/m 1,4 km/h (1 Bft) O 92 5 min 0,000 mm 0,0 UV-I 185 W/m 7,1 C 21,7 C 4,0 km/h (1 Bft) 0,00 %
22.08.2015 19:24 21,6 C 40 % 1017,6 hPa 0,0 l/m 0,0 km/h (0 Bft) O 81 5 min 0,000 mm 0,0 UV-I 153 W/m 7,4 C 21,6 C 0,0 km/h (0 Bft) 0,00 %
22.08.2015 19:29 21,4 C 40 % 1017,7 hPa 0,0 l/m 0,0 km/h (0 Bft) O-NO 60 5 min 0,000 mm 0,0 UV-I 76 W/m 7,2 C 21,4 C 0,0 km/h (0 Bft) 0,00 %
22.08.2015 19:34 21,2 C 44 % 1017,5 hPa 0,0 l/m 0,0 km/h (0 Bft) O-NO 71 5 min 0,000 mm 0,0 UV-I 51 W/m 8,5 C 21,2 C 0,0 km/h (0 Bft) 0,00 %
22.08.2015 19:39 20,8 C 46 % 1017,6 hPa 0,0 l/m 0,0 km/h (0 Bft) O-NO 70 5 min 0,000 mm 0,0 UV-I 42 W/m 8,8 C 20,8 C 0,0 km/h (0 Bft) 0,00 %
22.08.2015 19:44 20,4 C 48 % 1017,5 hPa 0,0 l/m 0,0 km/h (0 Bft) O-NO 65 5 min 0,000 mm 0,0 UV-I 31 W/m 9,0 C 20,4 C 0,0 km/h (0 Bft) 0,00 %
22.08.2015 19:49 19,9 C 50 % 1017,5 hPa 0,0 l/m 0,0 km/h (0 Bft) O-NO 78 5 min 0,000 mm 0,0 UV-I 22 W/m 9,2 C 19,9 C 0,0 km/h (0 Bft) 0,00 %
22.08.2015 19:54 19,5 C 51 % 1017,5 hPa 0,0 l/m 0,0 km/h (0 Bft) O-NO 72 5 min 0,000 mm 0,0 UV-I 12 W/m 9,1 C 19,5 C 0,0 km/h (0 Bft) 0,00 %
22.08.2015 19:59 19,2 C 51 % 1017,5 hPa 0,0 l/m 0,0 km/h (0 Bft) O-SO 102 0 min 0,000 mm 0,0 UV-I 6 W/m 8,8 C 19,2 C 0,0 km/h (0 Bft) 0,00 %
22.08.2015 20:04 18,9 C 53 % 1017,5 hPa 0,0 l/m 0,0 km/h (0 Bft) NO 52 0 min 0,000 mm 0,0 UV-I 0 W/m 9,1 C 18,9 C 0,0 km/h (0 Bft) 0,00 %
22.08.2015 20:09 18,6 C 54 % 1017,3 hPa 0,0 l/m 0,0 km/h (0 Bft) NO 52 0 min 0,000 mm 0,0 UV-I 0 W/m 9,1 C 18,6 C 0,0 km/h (0 Bft) 0,00 %
22.08.2015 20:14 18,3 C 55 % 1017,4 hPa 0,0 l/m 0,0 km/h (0 Bft) NO 42 0 min 0,000 mm 0,0 UV-I 0 W/m 9,1 C 18,3 C 0,0 km/h (0 Bft) 0,00 %
22.08.2015 20:19 18,0 C 56 % 1017,4 hPa 0,0 l/m 0,0 km/h (0 Bft) NO 44 0 min 0,000 mm 0,0 UV-I 0 W/m 9,1 C 18,0 C 0,0 km/h (0 Bft) 0,00 %
22.08.2015 20:24 17,8 C 58 % 1017,4 hPa 0,0 l/m 0,0 km/h (0 Bft) O-SO 106 0 min 0,000 mm 0,0 UV-I 0 W/m 9,4 C 17,8 C 0,0 km/h (0 Bft) 0,00 %
22.08.2015 20:29 17,7 C 57 % 1017,4 hPa 0,0 l/m 0,0 km/h (0 Bft) O 90 0 min 0,000 mm 0,0 UV-I 0 W/m 9,1 C 17,7 C 0,0 km/h (0 Bft) 0,00 %
22.08.2015 20:34 17,6 C 55 % 1017,4 hPa 0,0 l/m 5,8 km/h (2 Bft) SO 129 0 min 0,000 mm 0,0 UV-I 0 W/m 8,5 C 17,6 C 7,9 km/h (2 Bft) 0,00 %
22.08.2015 20:39 17,7 C 54 % 1017,3 hPa 0,0 l/m 1,4 km/h (1 Bft) O 94 0 min 0,000 mm 0,0 UV-I 0 W/m 8,3 C 17,7 C 4,0 km/h (1 Bft) 0,00 %
22.08.2015 20:44 17,8 C 57 % 1017,5 hPa 0,0 l/m 0,4 km/h (0 Bft) O 88 0 min 0,000 mm 0,0 UV-I 0 W/m 9,2 C 17,8 C 4,0 km/h (1 Bft) 0,00 %
22.08.2015 20:49 17,8 C 57 % 1017,6 hPa 0,0 l/m 0,0 km/h (0 Bft) O 81 0 min 0,000 mm 0,0 UV-I 0 W/m 9,2 C 17,8 C 0,0 km/h (0 Bft) 0,00 %
22.08.2015 20:54 17,6 C 60 % 1017,3 hPa 0,0 l/m 0,0 km/h (0 Bft) O 88 0 min 0,000 mm 0,0 UV-I 0 W/m 9,7 C 17,6 C 0,0 km/h (0 Bft) 0,00 %
22.08.2015 20:59 17,3 C 60 % 1017,4 hPa 0,0 l/m 0,0 km/h (0 Bft) O-NO 65 0 min 0,000 mm 0,0 UV-I 0 W/m 9,5 C 17,3 C 0,0 km/h (0 Bft) 0,00 %
22.08.2015 21:04 17,0 C 57 % 1017,3 hPa 0,0 l/m 0,4 km/h (0 Bft) O 91 0 min 0,000 mm 0,0 UV-I 0 W/m 8,4 C 17,0 C 4,0 km/h (1 Bft) 0,00 %
22.08.2015 21:09 17,1 C 57 % 1017,4 hPa 0,0 l/m 0,0 km/h (0 Bft) N 349 0 min 0,000 mm 0,0 UV-I 0 W/m 8,5 C 17,1 C 0,0 km/h (0 Bft) 0,00 %
22.08.2015 21:14 17,2 C 58 % 1017,4 hPa 0,0 l/m 0,7 km/h (0 Bft) O 82 0 min 0,000 mm 0,0 UV-I 0 W/m 8,9 C 17,2 C 4,0 km/h (1 Bft) 0,00 %
22.08.2015 21:19 17,1 C 61 % 1017,4 hPa 0,0 l/m 0,4 km/h (0 Bft) O 92 0 min 0,000 mm 0,0 UV-I 0 W/m 9,5 C 17,1 C 4,0 km/h (1 Bft) 0,00 %
22.08.2015 21:24 16,9 C 60 % 1017,4 hPa 0,0 l/m 0,0 km/h (0 Bft) NO 49 0 min 0,000 mm 0,0 UV-I 0 W/m 9,1 C 16,9 C 0,0 km/h (0 Bft) 0,00 %
22.08.2015 21:29 16,7 C 60 % 1017,5 hPa 0,0 l/m 0,0 km/h (0 Bft) O-NO 75 0 min 0,000 mm 0,0 UV-I 0 W/m 8,9 C 16,7 C 0,0 km/h (0 Bft) 0,00 %
22.08.2015 21:34 16,4 C 60 % 1017,4 hPa 0,0 l/m 2,2 km/h (1 Bft) O 94 0 min 0,000 mm 0,0 UV-I 0 W/m 8,6 C 16,4 C 4,0 km/h (1 Bft) 0,00 %
22.08.2015 21:39 16,3 C 59 % 1017,4 hPa 0,0 l/m 0,0 km/h (0 Bft) NO 46 0 min 0,000 mm 0,0 UV-I 0 W/m 8,3 C 16,3 C 0,0 km/h (0 Bft) 0,00 %
22.08.2015 21:44 16,2 C 59 % 1017,1 hPa 0,0 l/m 2,9 km/h (1 Bft) S-SW 192 0 min 0,000 mm 0,0 UV-I 0 W/m 8,2 C 16,2 C 7,9 km/h (2 Bft) 0,00 %
22.08.2015 21:49 16,4 C 58 % 1017,3 hPa 0,0 l/m 4,0 km/h (1 Bft) SO 133 0 min 0,000 mm 0,0 UV-I 0 W/m 8,1 C 16,4 C 4,0 km/h (1 Bft) 0,00 %
22.08.2015 21:54 16,5 C 58 % 1017,4 hPa 0,0 l/m 4,7 km/h (1 Bft) O-SO 113 0 min 0,000 mm 0,0 UV-I 0 W/m 8,2 C 16,5 C 7,9 km/h (2 Bft) 0,00 %
22.08.2015 21:59 16,6 C 58 % 1017,1 hPa 0,0 l/m 2,9 km/h (1 Bft) O-SO 107 0 min 0,000 mm 0,0 UV-I 0 W/m 8,3 C 16,6 C 4,0 km/h (1 Bft) 0,00 %
22.08.2015 22:04 16,6 C 58 % 1017,1 hPa 0,0 l/m 1,4 km/h (1 Bft) O-NO 69 0 min 0,000 mm 0,0 UV-I 0 W/m 8,3 C 16,6 C 4,0 km/h (1 Bft) 0,00 %
22.08.2015 22:09 16,5 C 59 % 1017,3 hPa 0,0 l/m 1,4 km/h (1 Bft) SO 136 0 min 0,000 mm 0,0 UV-I 0 W/m 8,5 C 16,5 C 4,0 km/h (1 Bft) 0,00 %
22.08.2015 22:14 16,4 C 59 % 1017,2 hPa 0,0 l/m 0,7 km/h (0 Bft) O 84 0 min 0,000 mm 0,0 UV-I 0 W/m 8,4 C 16,4 C 4,0 km/h (1 Bft) 0,00 %
22.08.2015 22:19 16,2 C 60 % 1017,3 hPa 0,0 l/m 0,0 km/h (0 Bft) NO 41 0 min 0,000 mm 0,0 UV-I 0 W/m 8,4 C 16,2 C 0,0 km/h (0 Bft) 0,00 %
22.08.2015 22:24 16,1 C 62 % 1017,1 hPa 0,0 l/m 0,0 km/h (0 Bft) NO 51 0 min 0,000 mm 0,0 UV-I 0 W/m 8,8 C 16,1 C 0,0 km/h (0 Bft) 0,00 %
22.08.2015 22:29 15,8 C 64 % 1017,0 hPa 0,0 l/m 0,0 km/h (0 Bft) O 101 0 min 0,000 mm 0,0 UV-I 0 W/m 9,0 C 15,8 C 0,0 km/h (0 Bft) 0,00 %
22.08.2015 22:34 15,4 C 64 % 1017,2 hPa 0,0 l/m 0,0 km/h (0 Bft) O-NO 62 0 min 0,000 mm 0,0 UV-I 0 W/m 8,6 C 15,4 C 0,0 km/h (0 Bft) 0,00 %
22.08.2015 22:39 15,1 C 67 % 1017,2 hPa 0,0 l/m 0,0 km/h (0 Bft) NO 44 0 min 0,000 mm 0,0 UV-I 0 W/m 9,0 C 15,1 C 0,0 km/h (0 Bft) 0,00 %
22.08.2015 22:44 14,8 C 68 % 1017,0 hPa 0,0 l/m 0,0 km/h (0 Bft) O 80 0 min 0,000 mm 0,0 UV-I 0 W/m 9,0 C 14,8 C 0,0 km/h (0 Bft) 0,00 %
22.08.2015 22:49 14,6 C 70 % 1016,9 hPa 0,0 l/m 0,0 km/h (0 Bft) O-NO 71 0 min 0,000 mm 0,0 UV-I 0 W/m 9,2 C 14,6 C 0,0 km/h (0 Bft) 0,00 %
22.08.2015 22:54 14,4 C 69 % 1017,0 hPa 0,0 l/m 0,4 km/h (0 Bft) O-SO 118 0 min 0,000 mm 0,0 UV-I 0 W/m 8,8 C 14,4 C 4,0 km/h (1 Bft) 0,00 %
22.08.2015 22:59 14,3 C 70 % 1017,2 hPa 0,0 l/m 0,0 km/h (0 Bft) O 83 0 min 0,000 mm 0,0 UV-I 0 W/m 8,9 C 14,3 C 0,0 km/h (0 Bft) 0,00 %
22.08.2015 23:04 14,2 C 70 % 1017,1 hPa 0,0 l/m 0,0 km/h (0 Bft) O-NO 61 0 min 0,000 mm 0,0 UV-I 0 W/m 8,8 C 14,2 C 0,0 km/h (0 Bft) 0,00 %
22.08.2015 23:09 14,2 C 70 % 1017,0 hPa 0,0 l/m 0,4 km/h (0 Bft) O-NO 61 0 min 0,000 mm 0,0 UV-I 0 W/m 8,8 C 14,2 C 4,0 km/h (1 Bft) 0,00 %
22.08.2015 23:14 14,1 C 70 % 1016,8 hPa 0,0 l/m 0,0 km/h (0 Bft) O 81 0 min 0,000 mm 0,0 UV-I 0 W/m 8,7 C 14,1 C 0,0 km/h (0 Bft) 0,00 %
22.08.2015 23:19 14,0 C 72 % 1017,0 hPa 0,0 l/m 0,7 km/h (0 Bft) O 99 0 min 0,000 mm 0,0 UV-I 0 W/m 9,0 C 14,0 C 4,0 km/h (1 Bft) 0,00 %
22.08.2015 23:24 13,8 C 72 % 1016,9 hPa 0,0 l/m 0,7 km/h (0 Bft) O 88 0 min 0,000 mm 0,0 UV-I 0 W/m 8,8 C 13,8 C 4,0 km/h (1 Bft) 0,00 %
22.08.2015 23:29 13,6 C 72 % 1016,7 hPa 0,0 l/m 0,0 km/h (0 Bft) O 80 0 min 0,000 mm 0,0 UV-I 0 W/m 8,6 C 13,6 C 0,0 km/h (0 Bft) 0,00 %
22.08.2015 23:34 13,5 C 73 % 1016,6 hPa 0,0 l/m 1,4 km/h (1 Bft) O 80 0 min 0,000 mm 0,0 UV-I 0 W/m 8,8 C 13,5 C 4,0 km/h (1 Bft) 0,00 %
22.08.2015 23:39 13,5 C 72 % 1016,6 hPa 0,0 l/m 0,7 km/h (0 Bft) O 82 0 min 0,000 mm 0,0 UV-I 0 W/m 8,6 C 13,5 C 4,0 km/h (1 Bft) 0,00 %
22.08.2015 23:44 13,4 C 72 % 1016,7 hPa 0,0 l/m 1,4 km/h (1 Bft) O-SO 115 0 min 0,000 mm 0,0 UV-I 0 W/m 8,5 C 13,4 C 4,0 km/h (1 Bft) 0,00 %
22.08.2015 23:49 13,4 C 72 % 1016,4 hPa 0,0 l/m 0,0 km/h (0 Bft) O-NO 65 0 min 0,000 mm 0,0 UV-I 0 W/m 8,5 C 13,4 C 0,0 km/h (0 Bft) 0,00 %
22.08.2015 23:54 13,3 C 73 % 1016,4 hPa 0,0 l/m 0,0 km/h (0 Bft) NO 56 0 min 0,000 mm 0,0 UV-I 0 W/m 8,6 C 13,3 C 0,0 km/h (0 Bft) 0,00 %
22.08.2015 23:59 13,3 C 73 % 1016,5 hPa 0,0 l/m 0,0 km/h (0 Bft) O-NO 62 0 min 0,000 mm 0,0 UV-I 0 W/m 8,6 C 13,3 C 0,0 km/h (0 Bft) 0,00 %
_ Min-Zeit 06:18 14:58 23:49 - 00:02 - - - - - - 14:58 06:18 00:02 00:02
Minimum _ 9,0 C 25 % 1016,4 hPa - 0,0 km/h (0 Bft) - - - - - - 3,3 C 9,0 C 0,0 km/h (0 Bft) 0,00 %
_ Max-Zeit 15:28 05:03 00:02 00:02 16:13 - - 17:34 00:02 12:33 15:18 09:48 15:28 12:18 00:02
Maximum _ 25,5 C 99 % 1023,4 hPa 0,0 l/m 10,4 km/h
O (2 Bft)
- - 6 min 0,000 mm 4,0 UV-I 862 W/m 12,6 C 25,5 C 11,9 km/h
O (2 Bft)
0,00 %
Durchschnitt _ 17,9 C 63 % 1020,1 hPa #0,0 l/m 0,9 km/h (0 Bft) O - #12:26 h #0,000 mm 2,0 UV-I 475 W/m 9,4 C 17,9 C 2,0 km/h (1 Bft) 0,00 %